Weather in Sadovoye

Russia / Karachay-Cherkess Republic     44°19′05″N   42°02′07″E
temp.,
°C
wind,
m/s
gust,
m/s
humid.,
%
clouds,
%
prec.,
mm/h
press.,
hPa
HPBL,
m
12 may, wed
wed1200:00+5s119282 0.0 101611
03:00+4sw119197 0.0 101710
06:00+5wsw118151 0.0 101846
09:00+11ene23690 0.0 1016639
12:00+15e55593 0.0 10151124
15:00+17e66565 0.0 10141137
18:00+15e611706 0.0 1014633
21:00+10ese368792 0.0 1013134
13 may, thu
thu1300:00+9s22891 0.0 101315
03:00+8ssw22654 0.0 101314
06:00+9s22650 0.0 101426
09:00+18ene11490 0.0 1013372
12:00+22ene32510 0.0 1013811
15:00+23e555323 0.0 1012926
18:00+20e59731 0.0 1012422
21:00+14se22902 0.0 101426
14 may, fri
fri1400:00+13sse228995 0.0 101319
03:00+13s3368100 0.0 101323
06:00+14s33634 0.0 101334
09:00+23se12460 0.0 1012295
12:00+27ene22400 0.0 1011667
15:00+27e44480 0.0 1011999
18:00+23e47755 0.0 1011265
21:00+17se22885 0.0 101217
15 may, sat
sat1500:00+15s34653 0.0 101241
03:00+15sw325880 0.0 101223
06:00+15wsw33655 0.0 101436
09:00+22wnw34651 0.0 1014531
12:00+25nnw33552 0.0 10141071
15:00+25ne45590 0.0 10131258
18:00+22n3578100 0.8 1014127
21:00+18sw119199 0.8 101311
16 may, sun
sun1600:00+16s22924 0.0 101226
03:00+15s22916 0.0 101116
06:00+16s22875 0.0 101056
09:00+22e36715 0.0 1008676
12:00+25e796061 0.0 10061292
15:00+26e810635 0.0 10051359
18:00+22e7136899 0.0 1004600
21:00+19ese61271100 0.0 1004381